Regional Weather Roundup
Issued by NWS

Home | Current Version | Previous Version | Graphics & Text | Print | Product List | Glossary On
Versions: 1 2 3 4 5 6 7 8 9 10 11 12 13 14 15 16 17 18 19 20 21 22 23 24 25 26 27 28 29 30 31 32 33 34 35 36 37 38 39 40 41 42 43 44 45 46 47 48 49 50
000
ASUS43 KBIS 051320
RWRND

NORTH DAKOTA REGIONAL WEATHER ROUNDUP
NATIONAL WEATHER SERVICE BISMARCK ND
700 AM CST THU MAR 05 2015

NOTE: "FAIR" INDICATES FEW OR NO CLOUDS BELOW 12,000 FEET WITH NO
SIGNIFICANT WEATHER AND/OR OBSTRUCTIONS TO VISIBILITY.


NDZ001>003-009>011-017-051400-
NORTHWEST NORTH DAKOTA

CITY           SKY/WX    TMP DP  RH WIND       PRES   REMARKS
WILLISTON        N/A    N/A N/A N/A MISG      30.07F
MINOT          PTCLDY     0 -10  63 SW17      30.11F WCI -21
MINOT AFB      PTCLDY    -7 -13  78 S6        30.11F WCI -20
$$

NDZ018>021-031>035-040>046-051400-
SOUTHWEST NORTH DAKOTA

CITY           SKY/WX    TMP DP  RH WIND       PRES   REMARKS
BISMARCK       MOCLDY    -5 -11  75 E6        30.22F WCI -18
DICKINSON      CLOUDY     8  -1  66 S14       30.04F WCI  -8
GARRISON         N/A     -7 -12  79 S5        30.14F WCI -18
HETTINGER ARPT CLEAR      2  -6  69 SW5       30.11F WCI  -8
$$

NDZ004>008-012>016-024-026-027-054-051400-
NORTHEAST NORTH DAKOTA

CITY           SKY/WX    TMP DP  RH WIND       PRES   REMARKS
GRAND FORKS    PTCLDY   -12 -18  74 S8        30.34F WCI -29
GRND FRKS AFB  PTCLDY    -9 -17  68 SW6       30.32F WCI -23
DEVILS LAKE    PTCLDY    -6 -15  65 S5        30.20F WCI -17
$$

NDZ022-023-025-028>030-036>039-047>053-051400-
SOUTHEAST NORTH DAKOTA

CITY           SKY/WX    TMP DP  RH WIND       PRES   REMARKS
FARGO          MOCLDY    -7 -14  71 S10       30.40S WCI -25
JAMESTOWN      MOCLDY    -9 -15  75 S8        30.26F WCI -25
$$




USA.gov is the U.S. government's official web portal to all federal, state and local government web resources and services.